Weather History for Kearney, NE

Change the Weather History Date:

Saturday, March 30, 2013

  Actual Average Record
Temperature  
Mean Temperature 52 °F 43 °F  
Max Temperature 66 °F 56 °F 94 °F (1943)
Min Temperature 37 °F 29 °F -1 °F (1987)
Degree Days  
Heating Degree Days 13 22  
Cooling Degree Days 0 0  
Growing Degree Days 2 (Base 50)    
Moisture  
Dew Point 43 °F    
Average Humidity 67    
Maximum Humidity 100    
Minimum Humidity 34    
Precipitation  
Precipitation 0.03 in - 1.12 in (1949)
Sea Level Pressure  
Sea Level Pressure 29.99 in    
Wind  
Wind Speed 10 mph (North)    
Max Wind Speed 20 mph    
Max Gust Speed 27 mph    
Visibility 7 miles    
Events      
T = Trace of Precipitation, MM = Missing Value Source: NWS Daily Summary

Daily Weather History Graph

Daily Weather History Graph

Search for Another Location

Airport:

Trip Planner

Search our weather history database for the weather conditions in past years. The results will help you decide how hot, cold, wet, or windy it might be!

Date:

Astronomy

Mar. 30, 2013 Rise Set
Actual Time 7:22 AM CDT 7:59 PM CDT
Civil Twilight 6:54 AM CDT 8:26 PM CDT
Nautical Twilight 6:22 AM CDT 8:59 PM CDT
Astronomical Twilight 5:48 AM CDT 9:32 PM CDT
Moon No Moon Rise 9:17 AM CDT (3/30)
Length of Visible Light 13h 31m
Length of Day
12h 36m
Waning Gibbous, 86% of the Moon is Illuminated
Mar 30
Waning Gibbous
Apr 2
Last Quarter
Apr 10
New
Apr 18
First Quarter
Apr 25
Full

Hourly Weather History & Observations

Time (CDT) Temp. Windchill Dew Point Humidity Pressure Visibility Wind Dir Wind Speed Gust Speed Precip Events Conditions
12:15 AM 51.8 °F - 48.2 °F 88% 30.02 in 10.0 mi ENE 9.2 mph - N/A   Mostly Cloudy
12:35 AM 51.8 °F - 48.2 °F 88% 30.00 in 10.0 mi East 11.5 mph - N/A   Partly Cloudy
12:55 AM 51.8 °F - 48.2 °F 88% 29.99 in 10.0 mi ESE 10.4 mph - N/A   Partly Cloudy
1:15 AM 50.0 °F - 48.2 °F 94% 29.98 in 8.0 mi ESE 8.1 mph - N/A   Partly Cloudy
1:35 AM 48.2 °F - 46.4 °F 93% 29.97 in 5.0 mi SE 8.1 mph - N/A   Clear
1:55 AM 46.4 °F 42.9 °F 46.4 °F 100% 29.97 in 3.0 mi SE 6.9 mph - N/A   Clear
2:15 AM 46.4 °F 41.9 °F 46.4 °F 100% 29.96 in 3.0 mi SE 9.2 mph - N/A   Clear
2:35 AM 46.4 °F 41.9 °F 46.4 °F 100% 29.96 in 4.0 mi SSE 9.2 mph - N/A   Clear
2:55 AM 46.4 °F 42.9 °F 44.6 °F 93% 29.96 in 4.0 mi SE 6.9 mph - N/A   Partly Cloudy
3:15 AM 46.4 °F 42.4 °F 44.6 °F 93% 29.96 in 3.0 mi SE 8.1 mph - N/A   Scattered Clouds
3:35 AM 44.6 °F 40.7 °F 44.6 °F 100% 29.95 in 3.0 mi SE 6.9 mph - N/A   Mostly Cloudy
3:55 AM 44.6 °F 40.7 °F 44.6 °F 100% 29.95 in 3.0 mi SE 6.9 mph - N/A   Clear
4:15 AM 44.6 °F 42.2 °F 44.6 °F 100% 29.94 in 4.0 mi SSE 4.6 mph - N/A   Clear
4:35 AM 44.6 °F 43.1 °F 44.6 °F 100% 29.94 in 2.5 mi SSE 3.5 mph - N/A   Clear
4:55 AM 46.4 °F - 44.6 °F 93% 29.94 in 3.0 mi Calm Calm - N/A   Partly Cloudy
5:15 AM 44.6 °F 43.1 °F 44.6 °F 100% 29.94 in 0.8 mi South 3.5 mph - N/A   Mostly Cloudy
5:35 AM 44.6 °F - 44.6 °F 100% 29.93 in 1.5 mi Calm Calm - N/A   Scattered Clouds
5:55 AM 42.8 °F - 41.0 °F 93% 29.93 in 0.2 mi Calm Calm - N/A   Overcast
6:15 AM 41.0 °F 38.0 °F 39.2 °F 93% 29.93 in 0.2 mi WNW 4.6 mph - N/A   Overcast
6:35 AM 39.2 °F 35.0 °F 37.4 °F 93% 29.93 in 0.2 mi NW 5.8 mph - N/A   Overcast
6:55 AM 37.4 °F 32.1 °F 37.4 °F 100% 29.95 in 0.2 mi WNW 6.9 mph - N/A   Overcast
7:15 AM 39.2 °F 33.6 °F 37.4 °F 93% 29.96 in 0.2 mi WNW 8.1 mph - N/A   Overcast
7:35 AM 42.8 °F 37.5 °F 42.8 °F 100% 29.97 in 0.2 mi North 9.2 mph - N/A   Overcast
7:55 AM 44.6 °F 39.2 °F 42.8 °F 93% 29.98 in 0.2 mi North 10.4 mph - N/A   Overcast
8:15 AM 44.6 °F 39.2 °F 44.6 °F 100% 29.99 in 0.2 mi NNE 10.4 mph - N/A   Overcast
8:35 AM 44.6 °F 40.7 °F 44.6 °F 100% 30.00 in 0.2 mi NNE 6.9 mph - N/A   Overcast
8:55 AM 46.4 °F 43.5 °F 44.6 °F 93% 30.00 in 0.2 mi NNE 5.8 mph - N/A   Overcast
9:15 AM 46.4 °F 42.4 °F 44.6 °F 93% 30.01 in 0.8 mi North 8.1 mph - N/A   Overcast
9:35 AM 48.2 °F - 48.2 °F 100% 30.01 in 2.0 mi North 8.1 mph - N/A   Overcast
9:55 AM 48.2 °F - 46.4 °F 93% 30.01 in 4.0 mi North 12.7 mph - N/A   Overcast
10:15 AM 50.0 °F - 48.2 °F 94% 30.01 in 7.0 mi North 15.0 mph - N/A   Overcast
10:35 AM 51.8 °F - 48.2 °F 88% 30.00 in 9.0 mi North 10.4 mph - N/A   Mostly Cloudy
10:55 AM 51.8 °F - 48.2 °F 88% 30.01 in 10.0 mi NNW 12.7 mph - N/A   Mostly Cloudy
11:15 AM 53.6 °F - 48.2 °F 82% 30.02 in 10.0 mi North 12.7 mph - N/A   Mostly Cloudy
11:35 AM 55.4 °F - 48.2 °F 77% 30.02 in 10.0 mi North 12.7 mph - N/A   Partly Cloudy
11:55 AM 55.4 °F - 46.4 °F 72% 30.02 in 10.0 mi North 13.8 mph - N/A   Clear
12:15 PM 57.2 °F - 44.6 °F 63% 30.02 in 10.0 mi North 10.4 mph 16.1 mph N/A   Clear
12:35 PM 59.0 °F - 44.6 °F 59% 30.01 in 10.0 mi North 12.7 mph 16.1 mph N/A   Clear
12:55 PM 60.8 °F - 42.8 °F 52% 30.01 in 10.0 mi North 12.7 mph 18.4 mph N/A   Clear
1:15 PM 62.6 °F - 39.2 °F 42% 30.00 in 10.0 mi North 16.1 mph 20.7 mph N/A   Clear
1:35 PM 62.6 °F - 39.2 °F 42% 30.00 in 10.0 mi North 15.0 mph 19.6 mph N/A   Clear
1:55 PM 64.4 °F - 39.2 °F 40% 29.99 in 10.0 mi North 16.1 mph 21.9 mph N/A   Clear
2:15 PM 64.4 °F - 39.2 °F 40% 29.98 in 10.0 mi NNE 13.8 mph 21.9 mph N/A   Clear
2:35 PM 64.4 °F - 37.4 °F 37% 29.98 in 10.0 mi NNE 12.7 mph - N/A   Clear
2:55 PM 64.4 °F - 35.6 °F 34% 29.98 in 10.0 mi North 10.4 mph - N/A   Clear
3:15 PM 64.4 °F - 35.6 °F 34% 29.98 in 10.0 mi North 17.3 mph 20.7 mph N/A   Clear
3:35 PM 64.4 °F - 35.6 °F 34% 29.97 in 10.0 mi North 9.2 mph - N/A   Clear
3:55 PM 66.2 °F - 37.4 °F 35% 29.97 in 10.0 mi North 13.8 mph - N/A   Mostly Cloudy
4:15 PM 62.6 °F - 35.6 °F 37% 29.97 in 10.0 mi NNE 10.4 mph - N/A   Overcast
4:35 PM 62.6 °F - 35.6 °F 37% 29.97 in 10.0 mi NNE 12.7 mph - N/A   Overcast
4:55 PM 64.4 °F - 35.6 °F 34% 29.97 in 10.0 mi North 15.0 mph 21.9 mph N/A   Overcast
5:15 PM 62.6 °F - 35.6 °F 37% 29.97 in 10.0 mi North 12.7 mph - N/A   Overcast
5:35 PM 60.8 °F - 35.6 °F 39% 29.97 in 10.0 mi North 17.3 mph - N/A   Overcast
5:55 PM 60.8 °F - 35.6 °F 39% 29.97 in 10.0 mi North 11.5 mph - N/A   Overcast
6:15 PM 59.0 °F - 37.4 °F 45% 29.98 in 10.0 mi North 19.6 mph - N/A   Overcast
6:35 PM 57.2 °F - 37.4 °F 48% 29.99 in 10.0 mi North 24.2 mph 29.9 mph N/A   Overcast
6:55 PM 55.4 °F - 39.2 °F 54% 30.00 in 10.0 mi NNW 19.6 mph 26.5 mph N/A   Overcast
7:15 PM 51.8 °F - 42.8 °F 71% 30.00 in 10.0 mi North 23.0 mph 31.1 mph N/A   Overcast
7:35 PM 48.2 °F - 44.6 °F 87% 30.00 in 10.0 mi North 20.7 mph - N/A   Overcast
7:55 PM 50.0 °F - 44.6 °F 82% 30.02 in 10.0 mi NNW 16.1 mph - N/A   Overcast
8:15 PM 48.2 °F - 42.8 °F 82% 30.02 in 10.0 mi North 13.8 mph - N/A   Overcast
8:35 PM 48.2 °F - 42.8 °F 82% 30.02 in 10.0 mi NNW 9.2 mph - 0.01 in   Overcast
8:55 PM 48.2 °F - 44.6 °F 87% 30.02 in 10.0 mi NW 4.6 mph - 0.02 in   Overcast
9:15 PM 48.2 °F - 42.8 °F 82% 30.03 in 10.0 mi NW 3.5 mph - 0.01 in   Overcast
9:35 PM 46.4 °F 41.9 °F 44.6 °F 93% 30.04 in 10.0 mi WNW 9.2 mph - 0.01 in   Overcast
9:55 PM 46.4 °F 43.5 °F 42.8 °F 87% 30.04 in 10.0 mi NW 5.8 mph - 0.01 in   Mostly Cloudy
10:15 PM 46.4 °F 42.4 °F 42.8 °F 87% 30.05 in 10.0 mi West 8.1 mph - N/A   Scattered Clouds
10:35 PM 46.4 °F 41.9 °F 42.8 °F 87% 30.06 in 10.0 mi West 9.2 mph - N/A   Mostly Cloudy
10:55 PM 46.4 °F 41.9 °F 42.8 °F 87% 30.06 in 10.0 mi West 9.2 mph - N/A   Overcast
11:15 PM 46.4 °F 43.5 °F 42.8 °F 87% 30.06 in 10.0 mi WNW 5.8 mph - N/A   Overcast
11:35 PM 46.4 °F 42.9 °F 42.8 °F 87% 30.05 in 10.0 mi WNW 6.9 mph - N/A   Mostly Cloudy
11:55 PM 46.4 °F 43.5 °F 42.8 °F 87% 30.05 in 10.0 mi NW 5.8 mph - N/A   Mostly Cloudy